SVW15 GMFO-LSGG

Flight info

Callsign SVW15
Flight time N/A
Altitude 38000
Route ORSUP UA411 MOS UA6 LABRO L129 LULAK DCT LUMAS UM976 SOSUR Z16 MTG DCT CM A6 ROMAM Z16 LTP N871 GIPNO DCT BELUS
Aircraft A319/M-SDE3FGHIRWY/LB1

Departure

Time 2026-04-14 18:00
Airport Oujda Angads Airport (GMFO)

Arrival

Time N/A
Airport Geneva International Airport (LSGG)
Time Latitude Longitude Altitude Speed Heading
2026-04-14 17:32 34.78590 -1.94121 1526 ft 0 kts 359°
2026-04-14 17:53 34.78588 -1.94121 1526 ft 2 kts 359°
2026-04-14 17:53 34.78562 -1.94121 1522 ft 4 kts 360°
2026-04-14 17:54 34.78535 -1.94121 1518 ft 4 kts 360°
2026-04-14 17:54 34.78508 -1.94121 1519 ft 4 kts 360°
2026-04-14 17:54 34.78481 -1.94120 1522 ft 4 kts 357°
2026-04-14 17:54 34.78460 -1.94119 1526 ft 1 kts 356°
2026-04-14 17:55 34.78456 -1.94119 1526 ft 0 kts 356°
2026-04-14 17:56 34.78457 -1.94119 1526 ft 0 kts 354°
2026-04-14 17:56 34.78458 -1.94122 1519 ft 0 kts 323°
2026-04-14 17:57 34.78453 -1.94140 1526 ft 5 kts 249°
2026-04-14 17:57 34.78440 -1.94181 1526 ft 6 kts 249°
2026-04-14 17:57 34.78407 -1.94230 1526 ft 9 kts 201°
2026-04-14 17:57 34.78342 -1.94222 1523 ft 10 kts 152°
2026-04-14 17:58 34.78289 -1.94155 1526 ft 13 kts 131°
2026-04-14 17:58 34.78228 -1.94070 1526 ft 15 kts 131°
2026-04-14 17:58 34.78154 -1.93968 1523 ft 17 kts 131°
2026-04-14 17:58 34.78075 -1.93862 1525 ft 17 kts 131°
2026-04-14 17:59 34.78023 -1.93742 1525 ft 16 kts 80°
2026-04-14 17:59 34.78077 -1.93629 1526 ft 17 kts 57°
2026-04-14 17:59 34.78242 -1.93318 1529 ft 80 kts 57°
2026-04-14 17:59 34.78662 -1.92519 1526 ft 142 kts 57°
2026-04-14 18:00 34.79224 -1.91417 1955 ft 151 kts 55°
2026-04-14 18:00 34.79782 -1.90328 2607 ft 152 kts 54°
2026-04-14 18:00 34.81158 -1.88264 3576 ft 173 kts 40°
2026-04-14 18:01 34.82078 -1.87212 3911 ft 195 kts 40°
2026-04-14 18:01 34.83132 -1.86020 4231 ft 220 kts 40°
2026-04-14 18:01 34.84316 -1.84674 4641 ft 245 kts 40°
2026-04-14 18:01 34.85555 -1.83098 5160 ft 267 kts 47°
2026-04-14 18:02 34.86751 -1.81343 6094 ft 271 kts 50°
2026-04-14 18:02 34.87918 -1.79544 7133 ft 271 kts 50°
2026-04-14 18:02 34.89079 -1.77726 8104 ft 273 kts 50°
2026-04-14 18:02 34.90249 -1.75894 9073 ft 275 kts 49°
2026-04-14 18:03 34.91416 -1.74080 10047 ft 277 kts 48°
2026-04-14 18:03 34.92631 -1.72205 10641 ft 292 kts 48°
2026-04-14 18:03 34.93946 -1.70191 10939 ft 316 kts 48°
2026-04-14 18:03 34.95366 -1.68022 11171 ft 339 kts 48°
2026-04-14 18:04 34.96865 -1.65728 11664 ft 351 kts 48°
2026-04-14 18:04 34.98389 -1.63384 12379 ft 356 kts 48°
2026-04-14 18:04 34.99932 -1.61005 13117 ft 360 kts 48°
2026-04-14 18:04 35.01638 -1.58779 13826 ft 360 kts 35°
2026-04-14 18:05 35.03847 -1.57393 14463 ft 359 kts 14°
2026-04-14 18:05 35.06280 -1.57025 15139 ft 359 kts
2026-04-14 18:05 35.08777 -1.57087 15835 ft 360 kts 351°
2026-04-14 18:05 35.11188 -1.57950 16525 ft 363 kts 341°
2026-04-14 18:06 35.13561 -1.59013 17229 ft 364 kts 340°
2026-04-14 18:06 35.15811 -1.60466 17909 ft 368 kts 331°
2026-04-14 18:06 35.18004 -1.62089 18590 ft 370 kts 331°
2026-04-14 18:06 35.20204 -1.63734 19149 ft 372 kts 331°
2026-04-14 18:07 35.22417 -1.65392 19686 ft 374 kts 331°
2026-04-14 18:07 35.24641 -1.67062 20210 ft 376 kts 331°
2026-04-14 18:07 35.26849 -1.68720 20716 ft 378 kts 331°
2026-04-14 18:07 35.29098 -1.70407 21219 ft 381 kts 331°
2026-04-14 18:08 35.31365 -1.72109 21702 ft 383 kts 331°
2026-04-14 18:08 35.33642 -1.73818 22176 ft 386 kts 331°
2026-04-14 18:08 35.35936 -1.75541 22645 ft 388 kts 331°
2026-04-14 18:08 35.38245 -1.77274 23104 ft 390 kts 331°
2026-04-14 18:09 35.40568 -1.79017 23560 ft 393 kts 331°
2026-04-14 18:09 35.42905 -1.80770 23956 ft 395 kts 331°
2026-04-14 18:09 35.45252 -1.82532 24333 ft 397 kts 331°
2026-04-14 18:09 35.47579 -1.84281 24716 ft 398 kts 331°
2026-04-14 18:10 35.49947 -1.86061 25086 ft 400 kts 331°
2026-04-14 18:10 35.52322 -1.87848 25463 ft 401 kts 331°
2026-04-14 18:10 35.54707 -1.89643 25818 ft 403 kts 331°
2026-04-14 18:10 35.57098 -1.91444 26167 ft 404 kts 331°
2026-04-14 18:11 35.59500 -1.93254 26519 ft 406 kts 331°
2026-04-14 18:11 35.61914 -1.95073 26857 ft 407 kts 331°
2026-04-14 18:11 35.64331 -1.96895 27192 ft 409 kts 331°
2026-04-14 18:11 35.66728 -1.98701 27518 ft 410 kts 331°
2026-04-14 18:12 35.69164 -2.00537 27840 ft 412 kts 331°
2026-04-14 18:12 35.71611 -2.02382 28156 ft 413 kts 331°
2026-04-14 18:12 35.74067 -2.04234 28466 ft 415 kts 331°
2026-04-14 18:12 35.76527 -2.06088 28873 ft 414 kts 331°
2026-04-14 18:13 35.78976 -2.07936 29329 ft 412 kts 331°
2026-04-14 18:13 35.81413 -2.09778 29799 ft 410 kts 331°
2026-04-14 18:13 35.83837 -2.11611 30274 ft 408 kts 331°
2026-04-14 18:13 35.86248 -2.13437 30685 ft 406 kts 331°
2026-04-14 18:14 35.88644 -2.15262 31073 ft 404 kts 331°
2026-04-14 18:14 35.90999 -2.17066 31448 ft 403 kts 331°
2026-04-14 18:14 35.93387 -2.18871 31832 ft 401 kts 334°
2026-04-14 18:14 35.95973 -2.20069 32199 ft 397 kts 349°
2026-04-14 18:15 35.98712 -2.20292 32574 ft 397 kts
2026-04-14 18:15 36.01405 -2.19510 32948 ft 402 kts 18°
2026-04-14 18:15 36.03830 -2.17732 33337 ft 412 kts 34°
2026-04-14 18:15 36.05771 -2.15060 33732 ft 424 kts 47°
2026-04-14 18:16 36.07462 -2.12073 34135 ft 423 kts 47°
2026-04-14 18:16 36.09136 -2.09084 34504 ft 422 kts 47°
2026-04-14 18:16 36.10776 -2.06147 34870 ft 420 kts 47°